TimeCST,TemperatureF,Dew PointF,Humidity,Sea Level PressureIn,VisibilityMPH,Wind Direction,Wind SpeedMPH,Gust SpeedMPH,PrecipitationIn,Events,Conditions,WindDirDegrees,DateUTC
12:58 AM,65.5,62.8,91,29.86,10.0,South,15.0,25.3,N/A,,Overcast,180,2013-11-17 06:58:00
1:58 AM,65.8,63.0,90,29.85,10.0,South,19.6,31.1,N/A,,Overcast,190,2013-11-17 07:58:00
2:12 AM,66.2,62.6,88,29.85,10.0,South,18.4,26.5,N/A,,Overcast,180,2013-11-17 08:12:00
2:13 AM,66.2,62.6,88,29.85,10.0,South,18.4,26.5,N/A,,Overcast,190,2013-11-17 08:13:00
2:46 AM,66.2,62.6,88,29.85,10.0,South,11.5,21.9,N/A,,Overcast,190,2013-11-17 08:46:00
2:58 AM,66.4,62.8,88,29.84,10.0,South,16.1,28.8,N/A,,Overcast,180,2013-11-17 08:58:00
3:23 AM,66.2,62.6,88,29.83,10.0,South,18.4,25.3,N/A,,Overcast,190,2013-11-17 09:23:00
3:32 AM,66.2,62.6,88,29.82,10.0,South,17.3,26.5,N/A,,Overcast,190,2013-11-17 09:32:00
3:58 AM,66.6,62.8,88,29.82,10.0,South,17.3,27.6,0.01,,Overcast,180,2013-11-17 09:58:00
4:58 AM,66.7,62.4,86,29.80,10.0,South,17.3,28.8,N/A,,Overcast,180,2013-11-17 10:58:00
5:03 AM,66.2,62.6,88,29.80,10.0,South,17.3,26.5,N/A,,Overcast,180,2013-11-17 11:03:00
5:43 AM,66.2,62.6,88,29.79,10.0,South,18.4,24.2,N/A,,Light Drizzle,190,2013-11-17 11:43:00
5:58 AM,65.8,63.9,93,29.79,10.0,South,17.3,26.5,0.00,,Light Drizzle,180,2013-11-17 11:58:00
6:07 AM,64.4,64.4,100,29.80,10.0,South,17.3,24.2,N/A,,Overcast,180,2013-11-17 12:07:00
6:17 AM,66.2,64.4,94,29.81,9.0,South,16.1,26.5,N/A,Rain,Light Rain,180,2013-11-17 12:17:00
6:34 AM,64.4,64.4,100,29.82,10.0,South,18.4,26.5,N/A,,Overcast,190,2013-11-17 12:34:00
6:36 AM,64.4,64.4,100,29.82,10.0,South,19.6,26.5,N/A,Rain,Light Rain,190,2013-11-17 12:36:00
6:54 AM,64.4,64.4,100,29.84,10.0,South,13.8,26.5,N/A,,Overcast,190,2013-11-17 12:54:00
6:55 AM,64.4,64.4,100,29.84,10.0,South,15.0,26.5,N/A,Rain,Light Rain,190,2013-11-17 12:55:00
6:58 AM,64.2,64.2,100,29.84,10.0,South,16.1,26.5,0.12,Rain,Light Rain,190,2013-11-17 12:58:00
7:20 AM,64.4,64.4,100,29.85,6.0,South,12.7,18.4,N/A,Rain,Rain,180,2013-11-17 13:20:00
7:30 AM,64.4,64.4,100,29.86,2.5,SSW,12.7,-,N/A,Rain,Heavy Rain,210,2013-11-17 13:30:00
7:32 AM,64.4,64.4,100,29.86,2.5,SSW,12.7,-,N/A,Rain,Heavy Rain,200,2013-11-17 13:32:00
7:43 AM,62.6,62.6,100,29.84,3.0,South,9.2,-,N/A,Rain,Rain,170,2013-11-17 13:43:00
7:58 AM,63.3,63.3,100,29.85,6.0,South,9.2,-,0.35,Rain,Rain,180,2013-11-17 13:58:00
8:06 AM,62.6,62.6,100,29.84,6.0,SSE,6.9,-,N/A,Rain,Rain,160,2013-11-17 14:06:00
8:15 AM,62.6,62.6,100,29.85,5.0,SSE,9.2,-,N/A,Rain,Rain,160,2013-11-17 14:15:00
8:30 AM,62.6,62.6,100,29.83,2.5,SSE,16.1,21.9,N/A,Rain,Rain,160,2013-11-17 14:30:00
8:33 AM,62.6,62.6,100,29.83,1.8,SSE,12.7,21.9,N/A,Rain,Heavy Rain,160,2013-11-17 14:33:00
8:39 AM,62.6,62.6,100,29.84,1.2,South,6.9,21.9,N/A,Rain,Heavy Rain,170,2013-11-17 14:39:00
8:49 AM,62.6,62.6,100,29.83,1.5,NW,1.2,-,N/A,Rain,Heavy Rain,310,2013-11-17 14:49:00
8:51 AM,62.6,62.6,100,29.83,1.2,Calm,Calm,-,N/A,Rain,Light Rain,0,2013-11-17 14:51:00
8:55 AM,62.6,62.6,100,29.82,1.5,ESE,6.9,-,N/A,Rain,Rain,110,2013-11-17 14:55:00
8:58 AM,63.1,63.1,100,29.81,1.8,East,6.9,-,0.50,Rain,Rain,100,2013-11-17 14:58:00
8:59 AM,62.6,62.6,100,29.80,2.0,East,8.1,-,N/A,Rain,Light Rain,100,2013-11-17 14:59:00
9:01 AM,62.6,62.6,100,29.80,4.0,East,9.2,-,N/A,Rain,Light Rain,100,2013-11-17 15:01:00
9:04 AM,62.6,62.6,100,29.79,8.0,ESE,10.4,-,N/A,,Light Drizzle,110,2013-11-17 15:04:00
9:06 AM,62.6,62.6,100,29.79,10.0,East,11.5,-,N/A,,Light Drizzle,100,2013-11-17 15:06:00
9:11 AM,62.6,62.6,100,29.77,10.0,ESE,15.0,-,N/A,,Light Drizzle,110,2013-11-17 15:11:00
9:12 AM,62.6,62.6,100,29.78,10.0,ESE,13.8,-,N/A,,Overcast,110,2013-11-17 15:12:00
9:16 AM,62.6,62.6,100,29.78,10.0,ESE,15.0,-,N/A,,Overcast,120,2013-11-17 15:16:00
9:17 AM,62.6,62.6,100,29.77,10.0,ESE,15.0,-,N/A,,Overcast,120,2013-11-17 15:17:00
9:18 AM,62.6,62.6,100,29.77,10.0,ESE,15.0,-,N/A,,Light Drizzle,120,2013-11-17 15:18:00
9:19 AM,62.6,62.6,100,29.77,10.0,ESE,15.0,-,N/A,,Light Drizzle,120,2013-11-17 15:19:00
9:20 AM,62.6,62.6,100,29.77,10.0,ESE,15.0,-,N/A,,Overcast,120,2013-11-17 15:20:00
9:30 AM,62.6,62.6,100,29.78,10.0,Variable,2.3,-,N/A,,Light Drizzle,0,2013-11-17 15:30:00
9:31 AM,62.6,62.6,100,29.78,10.0,East,6.9,-,N/A,,Light Drizzle,80,2013-11-17 15:31:00
9:35 AM,62.6,62.6,100,29.77,8.0,Variable,5.8,-,N/A,Rain,Light Rain,0,2013-11-17 15:35:00
9:40 AM,62.6,62.6,100,29.80,2.0,West,9.2,-,N/A,Rain,Light Rain,280,2013-11-17 15:40:00
9:41 AM,62.6,62.6,100,29.80,1.8,WNW,8.1,-,N/A,Rain,Light Rain,290,2013-11-17 15:41:00
9:44 AM,62.6,62.6,100,29.79,1.2,NW,11.5,-,N/A,Rain,Heavy Rain,310,2013-11-17 15:44:00
9:49 AM,62.6,62.6,100,29.80,1.5,NW,8.1,-,N/A,Rain,Rain,320,2013-11-17 15:49:00
9:50 AM,62.6,62.6,100,29.80,2.0,NW,10.4,-,N/A,Rain,Rain,310,2013-11-17 15:50:00
9:54 AM,64.4,64.4,100,29.81,1.8,West,5.8,-,N/A,Rain,Heavy Rain,270,2013-11-17 15:54:00
9:58 AM,63.5,63.5,100,29.81,1.5,WSW,8.1,-,0.15,Rain,Heavy Rain,250,2013-11-17 15:58:00
10:00 AM,64.4,64.4,100,29.81,1.2,WSW,6.9,-,N/A,Rain,Rain,250,2013-11-17 16:00:00
10:03 AM,64.4,64.4,100,29.80,1.5,SSW,4.6,-,N/A,Rain,Rain,210,2013-11-17 16:03:00
10:05 AM,64.4,64.4,100,29.80,2.0,SSW,4.6,-,N/A,Rain,Light Rain,200,2013-11-17 16:05:00
10:07 AM,64.4,64.4,100,29.80,3.0,South,3.5,-,N/A,Rain,Light Rain,180,2013-11-17 16:07:00
10:16 AM,64.4,64.4,100,29.79,4.0,SE,2.3,-,N/A,Rain,Light Rain,140,2013-11-17 16:16:00
10:17 AM,64.4,64.4,100,29.79,4.0,SSE,2.3,-,N/A,Rain,Rain,150,2013-11-17 16:17:00
10:23 AM,64.4,64.4,100,29.79,4.0,SE,4.6,-,N/A,Rain,Light Rain,140,2013-11-17 16:23:00
10:32 AM,64.4,64.4,100,29.79,3.0,SSE,4.6,-,N/A,Rain,Rain,160,2013-11-17 16:32:00
10:55 AM,64.4,64.4,100,29.78,9.0,South,6.9,-,N/A,,Light Drizzle,180,2013-11-17 16:55:00
10:58 AM,64.0,64.0,100,29.77,8.0,South,5.8,-,0.11,,Light Drizzle,170,2013-11-17 16:58:00
10:59 AM,64.4,64.4,100,29.77,9.0,South,5.8,-,N/A,,Light Drizzle,170,2013-11-17 16:59:00
11:00 AM,64.4,64.4,100,29.77,9.0,South,5.8,-,N/A,,Light Drizzle,180,2013-11-17 17:00:00
11:25 AM,64.4,64.4,100,29.75,8.0,South,13.8,21.9,N/A,Rain,Light Rain,190,2013-11-17 17:25:00
11:28 AM,64.4,64.4,100,29.75,6.0,South,10.4,21.9,N/A,Rain,Light Rain,190,2013-11-17 17:28:00
11:29 AM,64.4,64.4,100,29.75,6.0,South,11.5,21.9,N/A,Rain,Light Rain,190,2013-11-17 17:29:00
11:30 AM,64.4,64.4,100,29.75,6.0,SSW,11.5,21.9,N/A,Rain,Rain,200,2013-11-17 17:30:00
11:35 AM,66.2,66.2,100,29.74,7.0,South,13.8,21.9,N/A,Rain,Light Rain,180,2013-11-17 17:35:00
11:42 AM,66.2,66.2,100,29.74,10.0,South,13.8,-,N/A,,Light Drizzle,180,2013-11-17 17:42:00
11:53 AM,66.2,66.2,100,29.72,10.0,South,12.7,-,N/A,,Overcast,180,2013-11-17 17:53:00
11:58 AM,65.8,65.8,100,29.72,10.0,South,12.7,-,0.04,,Overcast,190,2013-11-17 17:58:00
12:09 PM,66.2,66.2,100,29.72,10.0,SSW,17.3,24.2,N/A,,Light Drizzle,200,2013-11-17 18:09:00
12:21 PM,66.2,66.2,100,29.71,10.0,South,16.1,-,N/A,,Overcast,190,2013-11-17 18:21:00
12:27 PM,68.0,68.0,100,29.71,10.0,South,16.1,-,N/A,,Light Drizzle,190,2013-11-17 18:27:00
12:36 PM,68.0,68.0,100,29.70,10.0,South,13.8,26.5,N/A,,Overcast,190,2013-11-17 18:36:00
12:54 PM,68.0,68.0,100,29.69,10.0,South,16.1,25.3,N/A,,Light Drizzle,190,2013-11-17 18:54:00
12:58 PM,67.5,67.5,100,29.69,10.0,SSW,17.3,25.3,0.00,,Light Drizzle,200,2013-11-17 18:58:00
1:04 PM,68.0,68.0,100,29.68,10.0,South,15.0,25.3,N/A,,Overcast,180,2013-11-17 19:04:00
1:19 PM,68.0,68.0,100,29.68,10.0,SSW,20.7,28.8,N/A,,Light Drizzle,200,2013-11-17 19:19:00
1:23 PM,68.0,68.0,100,29.68,10.0,South,19.6,28.8,N/A,,Overcast,190,2013-11-17 19:23:00
1:25 PM,68.0,68.0,100,29.67,10.0,South,17.3,28.8,N/A,,Light Drizzle,190,2013-11-17 19:25:00
1:39 PM,68.0,68.0,100,29.67,10.0,South,16.1,26.5,N/A,,Overcast,190,2013-11-17 19:39:00
1:47 PM,68.0,68.0,100,29.68,10.0,SSW,16.1,26.5,N/A,,Light Drizzle,200,2013-11-17 19:47:00
1:56 PM,68.0,68.0,100,29.68,10.0,SSW,16.1,25.3,N/A,,Overcast,200,2013-11-17 19:56:00
1:58 PM,68.2,68.2,100,29.68,10.0,SSW,17.3,25.3,0.01,,Overcast,200,2013-11-17 19:58:00
2:20 PM,68.0,68.0,100,29.67,10.0,South,18.4,29.9,N/A,,Light Drizzle,190,2013-11-17 20:20:00
2:29 PM,68.0,68.0,100,29.67,10.0,SSW,19.6,25.3,N/A,,Overcast,200,2013-11-17 20:29:00
2:52 PM,69.8,69.8,100,29.65,10.0,South,16.1,31.1,N/A,,Mostly Cloudy,190,2013-11-17 20:52:00
2:58 PM,69.4,69.4,100,29.65,10.0,South,20.7,26.5,0.00,,Overcast,190,2013-11-17 20:58:00
2:59 PM,69.8,69.8,100,29.65,10.0,South,17.3,26.5,N/A,,Overcast,190,2013-11-17 20:59:00
3:06 PM,69.8,69.8,100,29.65,10.0,South,18.4,28.8,N/A,,Overcast,190,2013-11-17 21:06:00
3:44 PM,69.8,69.8,100,29.68,10.0,SSW,20.7,27.6,N/A,,Overcast,210,2013-11-17 21:44:00
3:52 PM,69.8,69.8,100,29.68,10.0,SSW,19.6,27.6,N/A,,Overcast,210,2013-11-17 21:52:00
3:58 PM,70.3,70.3,100,29.68,10.0,SSW,20.7,26.5,N/A,,Overcast,210,2013-11-17 21:58:00
4:02 PM,69.8,69.8,100,29.68,10.0,SSW,21.9,-,N/A,,Mostly Cloudy,210,2013-11-17 22:02:00
4:09 PM,69.8,69.8,100,29.68,10.0,SSW,19.6,28.8,N/A,,Scattered Clouds,200,2013-11-17 22:09:00
4:58 PM,70.3,70.3,100,29.69,10.0,SSW,15.0,24.2,N/A,,Clear,210,2013-11-17 22:58:00
5:03 PM,69.8,69.8,100,29.70,10.0,SSW,16.1,21.9,N/A,,Light Drizzle,210,2013-11-17 23:03:00
5:09 PM,69.8,69.8,100,29.70,10.0,SSW,9.2,21.9,N/A,,Scattered Clouds,210,2013-11-17 23:09:00
5:10 PM,69.8,69.8,100,29.70,10.0,SSW,9.2,21.9,N/A,,Light Drizzle,210,2013-11-17 23:10:00
5:14 PM,69.8,69.8,100,29.70,10.0,SW,15.0,20.7,N/A,,Light Drizzle,230,2013-11-17 23:14:00
5:20 PM,69.8,69.8,100,29.70,9.0,SW,11.5,20.7,N/A,,Light Drizzle,220,2013-11-17 23:20:00
5:24 PM,69.8,69.8,100,29.72,8.0,West,20.7,27.6,N/A,Rain,Light Rain,280,2013-11-17 23:24:00
5:26 PM,69.8,69.8,100,29.75,1.5,WNW,33.4,48.3,N/A,Rain,Rain,290,2013-11-17 23:26:00
5:27 PM,69.8,69.8,100,29.75,1.0,WNW,23.0,48.3,N/A,Rain,Light Rain,300,2013-11-17 23:27:00
5:28 PM,69.8,69.8,100,29.75,1.0,WNW,17.3,48.3,N/A,Rain,Light Rain,300,2013-11-17 23:28:00
5:29 PM,68.0,68.0,100,29.74,0.8,NW,10.4,48.3,N/A,Rain,Rain,310,2013-11-17 23:29:00
5:32 PM,66.2,66.2,100,29.73,0.5,WSW,15.0,48.3,N/A,Fog-Rain,Heavy Rain,250,2013-11-17 23:32:00
5:35 PM,64.4,64.4,100,29.74,0.5,SW,15.0,48.3,N/A,Fog-Rain,Heavy Rain,230,2013-11-17 23:35:00
5:36 PM,64.4,64.4,100,29.74,0.8,WSW,16.1,28.8,N/A,Rain,Heavy Rain,240,2013-11-17 23:36:00
5:38 PM,64.4,64.4,100,29.75,1.2,WSW,17.3,20.7,N/A,Rain,Heavy Rain,240,2013-11-17 23:38:00
5:39 PM,64.4,64.4,100,29.74,2.0,SW,16.1,20.7,N/A,Rain,Heavy Rain,230,2013-11-17 23:39:00
5:40 PM,64.4,64.4,100,29.74,2.5,WSW,17.3,20.7,N/A,Rain,Heavy Rain,240,2013-11-17 23:40:00
5:41 PM,64.4,64.4,100,29.73,3.0,WSW,18.4,20.7,N/A,Rain,Rain,240,2013-11-17 23:41:00
5:43 PM,64.4,64.4,100,29.73,5.0,WSW,19.6,28.8,N/A,Rain,Rain,240,2013-11-17 23:43:00
5:48 PM,64.4,64.4,100,29.72,7.0,WSW,20.7,28.8,N/A,Rain,Rain,250,2013-11-17 23:48:00
5:55 PM,64.4,64.4,100,29.72,9.0,WSW,20.7,27.6,N/A,Rain,Light Rain,250,2013-11-17 23:55:00
5:58 PM,64.4,64.4,100,29.72,10.0,WSW,19.6,27.6,0.41,,Drizzle,250,2013-11-17 23:58:00
6:04 PM,64.4,64.4,100,29.73,10.0,WSW,17.3,-,N/A,,Mostly Cloudy,250,2013-11-18 00:04:00
6:58 PM,63.1,63.1,100,29.77,10.0,WSW,11.5,-,0.00,,Partly Cloudy,240,2013-11-18 00:58:00
7:58 PM,63.1,63.1,100,29.81,10.0,West,8.1,-,N/A,,Clear,260,2013-11-18 01:58:00
8:58 PM,61.5,61.3,99,29.86,10.0,NW,5.8,-,N/A,,Clear,310,2013-11-18 02:58:00
9:58 PM,60.6,48.4,64,29.90,10.0,WNW,4.6,-,N/A,,Clear,300,2013-11-18 03:58:00
10:58 PM,54.1,54.1,100,29.92,10.0,WSW,4.6,-,N/A,,Clear,250,2013-11-18 04:58:00
11:58 PM,57.4,35.8,44,29.95,10.0,NW,6.9,-,N/A,,Clear,310,2013-11-18 05:58:00